Regional Weather Roundup
Issued by NWS

Home | Current Version | Previous Version | Graphics & Text | Print | Product List | Glossary On
Versions: 1 2 3 4 5 6 7 8 9 10 11 12 13 14 15 16 17 18 19 20 21 22 23 24 25 26 27 28 29 30 31 32 33 34 35 36 37 38 39 40 41 42 43 44 45 46 47 48 49 50
000
ASUS45 KABQ 272301
RWRNM
WEATHER ROUNDUP FOR NEW MEXICO
NATIONAL WEATHER SERVICE ALBUQUERQUE NM
400 PM MST TUE JAN 27 2015

NOTE: "FAIR" MEANS FEW OR NO CLOUDS BELOW 12,000 FEET AGL WITH NO
       SIGNIFICANT WEATHER OR OBSTRUCTIONS TO VISION.

      THIS PRODUCT IS RELEASED AS TWO VERSIONS.  ONE VERSION NEAR
      THE TOP OF THE HOUR CONTAINING PRELIMINARY DATA FROM ALBUQUERQUE
      AND OTHER STATIONS.  A FINAL VERSION WITH ADDITIONAL DATA IS
      ISSUED ABOUT 10 MINUTES AFTER THE HOUR.

NMZ501-503-504-510>518-280000-
NORTHWEST PLATEAU/NORTHCENTRAL MOUNTAINS

CITY           SKY/WX    TMP DP  RH WIND       PRES   REMARKS
FARMINGTON     SUNNY     57  34  41 VRB3      30.25F
SANTA FE       SUNNY     58  27  30 W10       30.25F
TAOS           SUNNY     55  28  35 SW10      30.26F

$$
NMZ402-403-502-505>509-280000-
WESTCENTRAL MOUNTAINS/SOUTHWEST MOUNTAINS

CITY           SKY/WX    TMP DP  RH WIND       PRES   REMARKS
GALLUP         MOSUNNY   57  33  40 SW13      30.30S
GRANTS         PTSUNNY   58  30  34 W8G16     30.31S
SILVER CITY    SUNNY     63  36  36 W3        30.27S

$$
NMZ407-409-411-412-280000-
SOUTHERN DESERTS

CITY           SKY/WX    TMP DP  RH WIND       PRES   REMARKS
DEMING         SUNNY     68  40  35 S5        30.22F
HOLLOMAN AFB   SUNNY     65  40  39 CALM      30.20F
ALAMOGORDO     SUNNY     66  36  32 CALM      30.22F
T OR C         SUNNY     65  36  34 S5        30.22S

$$
NMZ519>523-280000-
CENTRAL VALLEYS/CENTRAL HIGHLANDS

CITY           SKY/WX    TMP DP  RH WIND       PRES   REMARKS
ALBUQUERQUE    MOSUNNY   59  27  29 SW3       30.26S
DOUBLE EAGLE   MOSUNNY   59  30  33 VRB6      30.27F
MORIARTY ARPT  FAIR      60  30  31 NW7       30.26S
CLINES CORNERS SUNNY     56  33  42 W17       30.25S
BELEN          FAIR      60  31  33 E5        30.25F
SOCORRO        NOT AVBL

$$
NMZ524>526-539-540-280000-
SOUTHCENTRAL MOUNTAINS

CITY           SKY/WX    TMP DP  RH WIND       PRES   REMARKS
RUIDOSO        NOT AVBL

$$
NMZ527>531-280000-
NORTHEAST HIGHLANDS/NORTHEAST PLAINS

CITY           SKY/WX    TMP DP  RH WIND       PRES   REMARKS
LAS VEGAS      SUNNY     61  27  27 S17       30.19S
RATON          SUNNY     56  29  35 SW8       30.16F
CLAYTON        SUNNY     60  34  37 S17       30.11F

$$
NMZ532>537-280000-
EASTCENTRAL PLAINS

CITY           SKY/WX    TMP DP  RH WIND       PRES   REMARKS
TUCUMCARI      SUNNY     68  32  26 S12       30.11F
CANNON AFB     SUNNY     67  29  24 SW10      30.16F
CLOVIS AIRPORT SUNNY     66  30  26 SW12      30.16F

$$
NMZ028-029-538-280000-
SOUTHEAST PLAINS

CITY           SKY/WX    TMP DP  RH WIND       PRES   REMARKS
ROSWELL        SUNNY     69  31  24 S7        30.17S
ARTESIA        SUNNY     68  36  30 SE3       30.18S
CARLSBAD       SUNNY     72  34  24 SE8       30.15F
HOBBS          SUNNY     70  28  21 S6        30.18F


$$


USA.gov is the U.S. government's official web portal to all federal, state and local government web resources and services.